Вернуться в каталог

FREGAT DEB

LostUNKNOWN
NORAD 46106·DEBRIS·🇷🇺 Russia

Запущен Jul 18, 2011 с Baikonur Cosmodrome

Loading…

Ближайшие Пролёты (ближайшие 24 часа)

TLE

УстаревшееSource: Space-Track

Эпоха: Aug 10, 2020, 07:43 UTC

1 46106U 11037JR  20223.32155471 +.00080496 +00000-0 +34400-1 0  9995
2 46106 051.0769 199.9714 1564344 229.0642 116.4082 11.74192966000478

Отслеживайте FREGAT DEB в реальном времени с AllMySat

Download on the App Store